Theta_e
295 295 295 296 296 295 295 296 296 295 295 296 296 296 296 295 295 296 297 297 297 296 295 293 294 294 295 295 296 290 291 288 285 291 292 294 294 294 293 289 292 294 298 295 292 295 293 288 294 295 288 290 287 286
295 295 295 295 295 295 295 295 295 295 295 295 295 296 297 296 297 296 296 297 297 297 296 296 296 296 295 295 295 294 290 291 293 295 293 294 293 287 289 295 287 297 295 298 297 296 288 285 284 283 283 284 282 282
294 294 294 294 294 295 295 295 295 295 295 295 295 295 295 296 296 297 297 296 296 295 295 293 291 294 294 294 294 295 289 292 293 293 295 294 291 291 293 292 293 293 288 293 295 287 285 281 281 279 279 280 279 279
294 294 294 294 294 294 294 294 294 294 294 294 295 296 296 295 295 297 296 296 296 294 296 291 292 292 291 292 293 293 291 290 291 292 293 294 292 291 290 293 289 281 282 283 289 281 282 281 277 276 276 277 276 276
293 293 293 293 294 294 294 294 294 294 295 295 295 297 296 296 295 296 296 297 296 296 296 291 292 289 289 288 288 288 288 286 287 289 289 291 290 292 289 283 277 277 276 279 282 277 276 279 277 274 273 274 274 275
292 292 293 293 293 293 293 293 292 293 293 294 294 296 297 296 296 296 294 294 294 295 295 287 286 283 287 287 287 287 285 281 281 286 289 290 286 294 289 279 277 275 275 275 276 273 274 275 275 272 271 272 272 273
292 292 293 293 293 293 293 292 292 293 293 293 294 295 295 295 295 295 294 293 293 293 293 284 284 283 285 285 283 281 288 289 286 284 287 288 284 282 278 277 276 274 273 274 272 271 274 271 271 270 270 270 271 272
291 292 292 293 293 292 292 291 291 292 292 292 293 294 294 294 294 293 291 291 292 292 290 284 285 285 284 283 283 279 282 283 283 285 287 288 281 279 276 275 274 273 272 272 271 271 270 270 270 270 270 270 271 271
291 292 292 292 292 292 291 290 291 291 291 291 293 294 294 292 290 290 290 290 291 291 286 283 287 285 282 281 280 283 280 280 284 286 288 283 279 276 275 274 273 272 271 271 271 271 271 271 271 271 271 271 271 271
292 292 292 292 292 291 291 290 291 291 290 291 292 293 288 289 289 289 288 281 282 280 279 287 284 287 283 280 281 281 282 283 283 286 283 279 277 274 273 272 272 272 272 272 271 271 271 271 271 271 271 271 271 271
292 292 292 292 292 290 291 290 290 289 289 290 288 291 290 289 288 280 283 281 278 281 286 288 283 285 282 284 284 284 277 281 281 285 284 281 277 272 272 272 271 271 271 271 271 271 271 271 270 270 270 270 270 270
292 292 292 291 290 290 289 290 290 289 289 289 289 290 289 280 276 281 277 279 282 288 285 284 284 283 282 280 281 281 280 279 283 281 281 275 271 271 270 270 270 269 269 270 269 269 269 269 269 269 269 269 269 269
292 291 290 290 289 288 289 288 288 290 289 290 290 286 280 277 283 280 282 282 283 282 280 281 283 281 281 279 276 280 281 281 282 279 276 270 270 269 268 268 268 268 268 267 267 267 268 268 268 268 268 268 268 268
291 290 289 289 288 287 287 287 289 289 290 285 283 286 281 280 279 281 281 281 280 278 276 276 280 283 280 281 276 282 280 281 278 277 273 270 268 268 268 268 267 267 266 266 265 266 266 266 267 267 267 267 267 267
291 289 289 288 287 285 285 288 289 289 290 287 285 288 281 283 278 273 270 274 273 270 270 272 279 280 280 281 280 280 282 275 273 274 272 269 268 268 268 268 267 266 266 265 265 265 265 265 266 266 266 266 266 266
289 289 288 287 285 283 285 288 289 289 288 284 278 282 280 281 272 269 265 267 265 269 267 271 276 279 280 279 278 272 276 272 272 271 270 269 268 268 268 268 268 267 266 266 265 265 265 264 264 265 265 265 266 265
289 288 287 286 283 284 287 288 288 284 277 276 273 276 275 272 271 267 263 263 267 265 270 268 278 278 275 274 269 271 270 270 271 270 270 268 267 267 267 267 268 267 266 266 266 265 264 264 264 264 263 264 264 265
288 287 286 283 283 286 286 285 279 274 276 274 275 273 271 267 265 263 261 262 263 261 263 270 268 267 269 270 271 269 268 267 268 268 269 268 267 267 266 266 266 266 266 265 265 265 264 263 262 262 263 264 263 264
287 286 283 282 284 285 281 279 278 274 273 275 274 272 269 269 266 266 263 263 265 265 263 262 263 263 267 267 266 266 265 264 264 266 268 267 266 266 266 265 265 265 265 264 264 263 263 263 262 262 263 263 261 261
285 282 281 284 285 284 275 274 277 273 272 274 271 269 266 264 259 256 255 255 255 257 261 259 261 261 260 259 260 261 262 263 263 263 265 265 265 264 265 264 264 264 264 263 263 264 262 262 262 262 262 262 261 261
281 281 282 284 281 278 271 267 272 272 272 271 267 266 264 258 258 256 256 254 258 252 258 257 257 255 264 263 263 263 262 262 258 259 260 263 263 262 262 261 262 262 263 262 261 261 261 261 261 261 261 261 261 261
280 280 281 280 276 273 269 269 271 270 269 266 265 260 258 260 257 257 252 257 253 257 256 255 256 259 260 262 264 263 262 262 261 261 261 262 259 259 260 260 260 260 261 260 260 260 260 261 262 261 261 260 260 261
279 279 277 275 273 272 270 269 269 265 269 265 260 262 259 256 256 256 256 253 257 262 264 264 265 265 265 265 264 263 262 262 261 261 260 259 259 260 259 259 260 260 260 260 260 260 260 261 260 261 260 260 260 260
277 270 267 266 269 269 264 264 263 263 261 261 260 262 260 257 254 255 257 255 258 263 263 263 263 263 264 264 263 263 262 262 261 260 260 259 259 260 259 259 259 260 260 260 260 260 260 260 260 260 260 260 260 260
277 269 267 268 262 268 266 264 262 264 263 255 259 260 259 253 256 255 258 256 256 256 258 261 262 262 256 257 262 262 262 261 260 258 260 259 259 259 260 261 260 260 260 260 260 260 260 260 260 260 260 260 260 260
276 263 268 265 264 269 265 267 262 261 257 259 257 252 251 254 259 262 259 257 256 256 258 260 259 257 259 262 260 261 261 260 259 258 260 260 259 258 257 255 256 260 260 260 260 259 259 259 259 260 260 260 261 261
272 266 262 263 264 263 263 259 259 259 258 261 256 256 256 263 261 260 256 259 259 264 264 264 264 263 263 263 263 262 262 261 260 260 260 260 260 260 259 258 259 261 260 260 260 259 259 259 259 259 260 260 260 260
263 261 268 260 259 256 257 254 256 260 257 255 257 260 263 263 264 257 258 262 263 264 263 263 263 263 263 263 262 262 262 261 261 261 262 262 262 261 261 261 261 261 260 261 260 260 260 260 260 260 260 259 260 260
262 260 262 257 254 253 254 257 258 254 255 254 258 259 257 256 260 261 262 262 263 262 263 263 263 263 263 263 263 262 261 261 259 252 251 253 258 261 261 261 261 262 262 262 263 262 262 262 263 264 263 261 260 259
259 256 257 252 257 259 254 251 251 249 253 253 254 256 257 258 261 261 262 262 262 262 263 263 263 263 263 262 261 262 262 261 260 259 253 256 259 260 261 262 262 263 262 262 262 262 262 262 262 261 261 260 259 258
254 254 255 254 254 251 249 250 253 255 252 249 251 253 255 253 261 262 262 262 262 262 262 263 263 263 263 262 261 260 259 261 261 260 259 259 260 261 262 263 263 263 263 262 261 261 261 261 260 259 259 258 258 258
254 252 257 256 254 250 250 249 249 251 249 252 253 248 253 255 259 261 263 263 262 262 263 264 263 263 263 262 262 261 260 261 262 261 261 261 262 263 264 265 264 264 263 263 262 261 261 260 259 258 258 257 257 257
248 249 249 252 253 254 251 252 252 254 252 253 255 253 254 257 260 261 263 263 263 264 264 263 263 263 263 262 263 263 263 262 261 261 262 262 264 265 265 265 264 263 262 261 260 260 260 259 258 258 258 257 257 257
Wind_Speed
1 2 3 5 6 8 10 11 11 13 13 15 15 15 13 13 13 12 10 12 10 4 6 7 4 5 4 3 2 3 3 3 3 1 1 3 2 2 0 3 4 2 1 2 1 1 5 15 4 4 6 5 9 12
2 1 2 5 7 9 11 12 13 14 14 16 16 15 14 14 14 11 10 8 10 7 3 15 19 20 19 18 4 3 4 2 2 2 2 2 3 3 1 3 4 2 3 1 2 2 7 7 11 7 8 6 9 11
3 0 3 5 7 10 11 13 14 15 16 16 17 17 16 16 14 11 12 13 12 3 4 3 5 3 6 9 13 2 2 2 3 2 2 2 3 1 2 4 2 0 7 2 2 5 4 8 6 10 10 10 12 11
3 1 4 6 8 10 12 13 15 15 17 18 19 20 19 17 13 12 9 9 9 3 3 4 1 1 3 2 5 10 2 1 2 2 2 2 2 2 2 2 3 4 9 7 2 3 2 5 11 11 13 12 13 14
1 2 4 6 9 11 12 14 14 16 18 19 22 22 17 14 11 11 13 9 8 3 3 4 3 3 3 2 2 3 2 0 1 2 2 2 2 2 2 4 4 5 4 3 2 5 4 6 12 13 11 12 14 14
1 2 4 7 9 11 12 12 16 17 17 20 22 21 15 10 9 5 2 5 5 1 2 3 2 4 4 5 4 3 2 2 1 2 2 3 3 3 3 3 2 4 5 4 4 10 7 7 8 15 10 13 12 11
1 2 5 7 9 12 11 14 18 20 20 21 20 15 13 7 3 3 3 6 8 3 1 4 4 3 4 3 3 2 2 2 1 2 2 1 5 4 3 3 10 9 8 3 6 8 2 7 6 13 12 14 16 12
1 3 5 8 11 11 10 16 19 19 21 21 13 10 5 5 8 4 10 9 2 2 2 2 4 4 6 3 2 1 1 2 2 2 2 3 3 3 4 4 6 8 8 5 10 4 3 8 9 9 13 12 10 10
1 3 5 8 11 10 12 18 20 21 22 16 7 2 2 4 4 5 11 6 5 3 1 2 1 3 4 2 1 2 2 2 2 2 2 3 3 5 5 6 6 6 4 7 9 5 6 6 8 9 10 11 10 11
1 3 7 10 12 9 12 19 19 22 14 8 5 1 2 2 8 5 1 3 4 3 3 1 1 3 3 2 3 2 1 1 2 1 2 3 3 4 3 4 4 6 6 6 4 8 9 9 10 10 10 9 10 10
2 3 7 10 12 10 12 18 17 18 10 6 7 2 5 7 2 4 3 3 3 4 2 2 1 2 1 0 2 1 2 1 2 2 2 2 2 2 5 5 5 8 9 8 7 6 8 7 8 9 10 14 15 17
1 3 7 10 8 9 14 13 13 11 6 6 6 5 3 4 3 5 1 3 3 1 3 1 3 2 3 1 1 2 1 2 3 1 3 2 0 3 5 5 5 10 10 9 11 9 11 11 13 12 12 14 16 16
2 4 7 7 7 14 12 13 13 8 2 1 1 2 3 3 7 5 3 4 3 3 3 4 4 2 2 1 1 2 1 3 0 3 2 1 2 4 4 4 4 10 11 10 11 13 13 13 15 14 13 16 17 16
2 5 8 3 13 15 13 14 8 2 0 2 3 4 3 3 0 3 2 2 2 3 6 4 3 2 2 2 1 1 3 2 3 1 1 1 3 4 4 3 4 6 9 9 10 12 12 13 13 16 17 17 16 17
4 7 2 5 16 13 13 5 3 3 1 1 2 2 1 2 3 1 0 1 2 2 2 4 3 0 2 2 0 2 3 3 3 2 2 2 3 4 4 3 4 4 7 7 10 11 12 13 13 14 17 16 17 18
5 3 2 12 13 12 7 3 4 2 3 2 5 3 1 3 2 3 2 2 1 4 1 1 3 3 3 1 4 2 2 1 1 1 1 2 3 4 5 6 5 5 7 7 7 10 11 13 12 11 14 18 16 17
4 2 8 13 11 9 2 2 2 4 3 3 1 2 2 3 3 2 2 2 6 3 2 1 2 5 3 3 3 3 1 1 3 1 1 2 3 4 7 8 7 7 7 7 6 7 10 12 12 15 16 18 14 14
2 7 9 9 10 2 2 4 4 4 4 1 3 1 2 2 2 2 2 3 2 2 2 1 1 5 1 2 2 2 2 3 3 3 2 2 6 8 8 8 9 9 7 8 4 4 8 12 14 13 14 16 15 15
6 6 5 7 3 3 3 4 5 3 1 2 2 2 3 3 3 3 3 6 1 3 2 3 4 1 1 2 1 1 1 1 2 4 2 2 7 9 7 8 8 8 6 8 5 5 5 7 9 16 13 14 17 15
3 1 5 2 4 2 4 2 3 4 2 2 2 2 3 2 1 2 2 4 3 2 4 3 2 2 2 2 1 1 1 5 2 2 2 5 6 11 7 8 8 10 5 6 6 4 6 8 8 13 14 12 16 19
2 1 1 3 3 7 5 1 3 1 2 3 1 2 1 2 3 3 3 4 3 2 1 2 2 2 3 4 3 2 3 5 0 1 3 4 9 10 8 10 10 9 5 4 5 7 7 10 10 9 14 13 15 16
1 1 2 3 4 4 4 6 3 1 2 1 2 2 3 2 2 2 1 4 1 2 3 3 2 3 2 2 3 0 2 4 6 9 11 11 6 7 9 12 9 7 6 4 4 5 7 8 12 6 15 14 15 16
3 2 3 5 4 4 1 4 3 4 3 1 2 3 3 2 2 2 2 2 2 2 2 2 2 3 2 2 3 4 5 6 9 12 14 13 11 9 8 11 7 8 9 7 5 6 8 9 10 12 17 17 18 19
5 5 4 3 3 2 2 4 2 3 3 3 3 1 2 2 2 3 1 2 2 1 1 1 1 3 2 2 1 4 6 7 10 16 14 12 12 11 13 12 10 10 10 10 9 9 11 14 14 18 20 21 21 18
4 4 3 2 2 3 3 3 4 3 2 1 3 2 2 2 2 1 2 2 1 1 2 2 4 3 2 2 6 8 7 8 10 14 20 10 9 12 15 11 10 9 7 8 9 10 15 18 20 22 23 23 20 22
2 4 2 1 1 2 3 3 3 4 3 1 2 2 2 3 2 4 3 3 3 3 5 6 5 1 1 3 4 8 12 12 12 15 18 8 12 14 16 14 14 13 6 8 11 16 20 23 25 26 26 26 21 21
3 2 1 2 1 3 3 2 3 3 3 4 3 2 2 1 3 3 2 4 3 6 9 9 7 5 1 4 8 11 14 14 14 18 23 24 19 15 16 17 16 12 12 16 18 21 24 26 27 27 28 27 25 24
3 2 5 2 3 2 5 2 3 5 3 2 3 2 6 6 4 2 5 4 6 12 11 9 4 2 6 10 14 15 16 15 17 20 15 11 9 10 13 15 17 18 19 21 22 25 26 26 26 28 30 24 22 16
2 1 2 3 2 3 1 3 4 2 1 3 4 3 3 2 2 3 3 7 8 10 11 7 4 7 12 15 16 12 14 16 15 4 4 4 12 13 9 18 22 24 24 25 26 24 21 21 23 21 15 14 19 22
1 1 3 2 3 1 2 2 2 2 0 1 1 2 2 2 1 4 5 8 11 13 9 5 6 10 15 17 19 19 17 17 10 10 5 8 15 23 25 26 27 28 30 30 25 24 21 19 19 21 23 25 25 24
1 2 4 3 2 1 2 2 1 1 3 1 2 2 2 2 3 4 8 9 9 10 10 8 7 10 16 14 14 18 20 12 12 18 21 22 25 26 28 28 31 32 26 24 22 21 22 22 23 24 25 25 24 21
2 2 4 3 1 2 2 2 1 1 2 1 2 1 3 2 1 1 3 8 10 11 10 8 8 17 17 14 18 19 18 19 18 20 22 23 26 26 28 28 21 22 18 18 19 20 21 22 23 23 23 23 23 23
3 3 3 3 2 2 1 3 3 1 2 2 1 1 1 1 3 2 2 3 4 2 4 6 13 17 16 19 17 14 14 18 20 19 20 20 20 20 19 24 15 16 16 18 21 21 22 22 22 22 22 22 22 22
Wind_Direction
137 54 360 2 349 339 335 340 346 347 349 340 337 336 336 328 321 322 292 291 233 256 268 209 233 236 269 224 259 258 360 317 345 340 235 269 245 259 255 239 193 200 212 250 35 198 291 350 340 56 336 330 356 350
152 47 345 347 344 342 339 339 347 345 335 331 326 330 336 327 322 309 290 288 285 237 269 285 274 265 253 258 264 206 199 203 255 287 308 330 290 317 164 264 310 317 202 260 192 59 65 27 67 33 8 347 347 337
188 358 12 355 357 344 341 340 344 343 340 336 332 328 319 322 311 310 285 285 283 240 267 277 234 224 287 253 247 268 282 234 264 268 242 235 249 126 257 240 228 70 11 318 175 49 72 48 42 19 3 355 338 339
152 40 357 352 349 341 340 339 341 342 342 336 330 326 320 316 303 307 288 278 267 314 273 278 283 242 314 249 226 231 228 280 284 275 268 262 228 192 249 261 35 342 338 341 62 36 325 104 38 8 350 349 344 337
163 19 349 351 346 343 339 340 341 343 342 336 335 335 318 308 315 301 298 291 288 262 311 297 297 339 323 337 274 277 268 182 283 291 228 242 244 239 204 83 42 356 357 350 328 30 293 294 358 3 347 344 338 334
111 22 352 358 346 344 342 345 346 338 337 335 337 336 335 317 310 306 33 31 47 222 308 317 314 343 329 314 295 261 224 196 155 229 242 250 257 287 58 71 52 351 322 302 320 318 278 318 299 1 339 335 327 338
113 360 355 355 346 346 344 347 347 346 338 335 337 338 351 352 28 82 61 343 314 305 340 323 339 311 318 322 348 6 248 262 190 261 254 258 25 33 48 49 339 343 336 46 346 331 14 19 326 325 329 323 328 323
80 4 358 356 351 345 346 349 347 345 339 338 343 338 4 51 99 69 22 355 350 65 51 33 285 354 11 322 331 350 336 354 310 245 328 52 37 51 68 344 344 343 337 9 354 3 284 291 309 331 337 333 345 351
113 13 358 354 350 347 355 352 352 346 340 344 6 65 132 48 38 331 326 332 60 72 93 71 359 282 360 295 260 344 79 354 295 36 50 70 43 50 350 343 349 351 354 311 326 319 327 347 344 346 348 354 354 350
108 3 351 349 346 341 351 353 356 348 357 20 33 347 42 360 325 314 35 27 20 345 43 60 181 285 23 349 301 360 359 278 7 331 82 64 82 120 7 345 340 341 334 327 333 357 351 355 353 351 354 351 353 349
275 311 337 343 343 341 342 351 357 352 22 29 20 36 316 336 6 33 64 66 320 13 354 352 171 274 306 329 278 19 254 286 27 278 102 92 86 360 344 357 5 357 357 7 360 352 353 347 348 350 357 359 360 360
289 325 328 340 352 347 341 355 354 1 354 310 288 297 329 32 38 78 339 328 57 327 335 347 286 242 290 28 71 317 191 31 252 304 79 85 144 335 355 352 9 5 5 8 12 2 2 6 4 356 2 2 1 3
309 317 331 337 344 345 351 347 345 339 310 145 76 38 51 322 36 76 347 322 350 346 13 338 318 254 314 95 325 38 58 232 358 46 85 102 360 351 343 343 352 12 15 13 10 15 18 16 23 16 1 7 10 11
283 321 328 273 339 346 345 341 355 50 219 86 79 23 101 353 157 167 180 209 313 8 345 320 258 263 275 313 191 60 252 51 43 93 95 9 338 339 343 342 357 354 7 9 6 10 13 17 18 25 25 22 14 13
299 319 310 309 340 341 344 9 61 108 164 108 87 156 111 164 51 84 107 47 360 308 5 334 294 191 289 298 304 341 360 57 34 34 36 347 335 333 341 350 357 352 357 3 10 12 14 14 18 21 23 25 29 26
318 311 217 329 336 337 351 110 147 92 49 77 37 96 344 91 322 16 10 300 332 333 302 181 265 356 282 283 43 22 313 40 46 19 9 344 350 346 336 336 353 360 360 358 13 17 20 20 14 10 22 21 24 29
321 197 311 327 340 342 46 140 86 52 102 66 19 19 102 79 152 180 160 259 336 39 21 360 345 225 317 56 39 360 84 53 342 27 19 5 349 338 335 341 349 357 355 358 360 20 25 23 26 25 13 10 13 23
220 310 324 331 342 92 80 52 80 74 70 40 104 198 82 69 101 338 310 314 49 54 54 223 47 44 74 147 152 52 15 338 335 338 321 30 2 345 353 343 346 350 355 1 11 44 39 30 28 9 8 5 10 15
315 312 326 335 21 78 69 35 34 102 163 104 91 76 87 91 84 78 360 358 80 76 87 33 64 124 120 41 69 47 340 343 305 317 360 11 6 355 347 350 344 345 356 357 4 35 33 33 23 14 11 9 5 7
269 286 350 39 117 103 64 17 43 91 126 168 80 86 110 126 164 41 5 26 61 60 45 57 180 220 169 228 181 212 323 333 302 324 305 349 5 353 355 350 345 335 337 353 6 6 27 18 18 15 7 6 1 353
194 278 92 128 72 60 86 38 37 124 132 91 130 67 66 20 43 21 360 360 63 99 66 213 204 249 114 113 107 107 33 12 289 215 260 301 329 345 342 349 339 341 334 352 356 357 6 4 351 357 356 356 349 343
188 36 121 87 83 61 76 21 104 28 77 148 67 56 52 50 354 333 246 52 120 234 189 172 213 184 187 228 205 181 19 8 360 344 338 326 325 330 322 333 329 320 323 308 324 336 345 353 341 340 344 341 334 340
128 105 68 40 77 43 268 13 74 360 103 283 30 54 9 6 235 345 53 211 238 234 194 155 160 189 211 200 229 258 304 321 331 336 332 326 318 318 313 323 318 301 300 311 295 306 325 335 337 334 330 333 337 334
102 56 54 56 33 146 19 27 34 64 54 46 64 58 309 239 333 51 149 263 253 310 115 108 164 121 167 224 258 314 332 307 314 322 334 322 309 315 331 320 307 296 291 289 294 296 311 324 324 327 330 329 329 323
82 360 54 25 354 80 70 43 6 56 98 359 87 347 292 20 65 66 210 259 246 237 228 147 113 106 147 257 297 322 326 309 311 311 328 321 301 310 325 329 325 312 286 277 288 296 309 317 320 320 321 321 321 309
78 338 31 180 306 122 168 121 167 166 119 102 211 268 30 87 75 240 227 199 197 188 197 184 170 137 252 250 293 328 334 318 303 298 315 319 303 295 296 297 309 318 290 281 290 297 304 309 311 311 312 313 313 314
163 204 38 6 76 109 80 46 68 98 139 165 194 115 82 124 249 251 275 212 177 182 170 163 151 137 163 322 326 333 334 316 295 296 306 303 296 283 271 267 278 300 302 297 297 296 296 300 299 299 298 302 304 309
124 185 170 191 78 360 127 86 131 180 197 196 95 180 174 189 218 231 205 174 167 159 166 168 177 287 317 321 327 316 320 323 312 312 314 307 295 277 274 283 290 294 295 295 295 293 289 289 287 289 287 283 289 297
86 80 105 64 54 43 131 151 189 228 151 130 154 208 236 234 224 198 194 178 177 183 190 206 251 306 316 321 318 315 317 322 317 333 316 295 315 319 319 311 308 306 306 308 311 304 298 294 288 291 302 306 308 310
201 14 98 75 95 145 250 164 196 262 53 181 260 319 309 269 235 216 201 194 199 204 209 243 304 323 324 323 321 327 331 332 302 267 250 273 294 308 312 312 311 312 314 314 312 309 309 305 301 301 302 305 309 310
128 79 75 61 108 252 237 321 332 58 29 9 324 158 220 293 303 234 218 218 222 221 235 263 295 325 329 324 322 322 319 332 316 311 305 300 305 309 312 311 310 311 312 308 304 301 301 302 302 303 306 307 309 307
27 97 123 98 323 295 15 62 46 83 314 47 304 343 347 34 319 235 203 211 218 228 242 260 279 320 324 317 318 315 303 302 312 313 312 311 309 310 309 312 314 315 309 303 299 297 298 298 298 298 297 300 305 307
64 54 50 91 69 360 319 87 8 321 17 42 343 247 241 222 219 275 233 220 225 252 231 257 307 316 317 320 319 318 318 317 317 314 309 310 311 314 317 314 326 326 320 311 308 307 305 305 302 301 301 303 306 309